Chatham, MA

2:13 PM EST on February 09, 2016 (GMT -0500)
Chatham Municipal

Weather History for KCQX - June, 2013

Change the Weather History Date:

Friday, June 14, 2013

  Actual Average Record
Temperature  
Mean Temperature 56 °F -  
Max Temperature 61 °F 67 °F 80 °F (1997)
Min Temperature 51 °F 54 °F 47 °F (1980)
Degree Days  
Heating Degree Days 10    
Growing Degree Days 6 (Base 50)    
Moisture  
Dew Point 52 °F    
Average Humidity 90    
Maximum Humidity 100    
Minimum Humidity 67    
Precipitation  
Precipitation 0.85 in - - ()
Sea Level Pressure  
Sea Level Pressure 29.65 in    
Wind  
Wind Speed 15 mph (NE)    
Max Wind Speed 22 mph    
Max Gust Speed 34 mph    
Visibility 6 miles    
Events Rain    
Averages and records for this station are not official NWS values.
T = Trace of Precipitation, MM = Missing Value Source: NWS Daily Summary

Daily Weather History Graph

Daily Weather History Graph

Search for Another Location

Airport or City:

Trip Planner

Search our weather history database for the weather conditions in past years. The results will help you decide how hot, cold, wet, or windy it might be!

Date:

Astronomy

Jun. 14, 2013 Rise Set
Actual Time 5:04 AM EDT 8:15 PM EDT
Civil Twilight 4:30 AM EDT 8:50 PM EDT
Nautical Twilight 3:46 AM EDT 9:33 PM EDT
Astronomical Twilight 2:54 AM EDT 10:26 PM EDT
Moon 10:40 AM EDT (6/14) 11:45 PM EDT (6/14)
Length of Visible Light 16h 19m
Length of Day
15h 11m
Waxing Crescent, 30% of the Moon is Illuminated
Jun 14
Waxing Crescent
Jun 16
First Quarter
Jun 23
Full
Jun 30
Last Quarter
Jul 8
New

Hourly Weather History & Observations

Time (EDT) Temp. Dew Point Humidity Pressure Visibility Wind Dir Wind Speed Gust Speed Precip Events Conditions
12:22 AM 55.4 °F 53.6 °F 94% 29.62 in 4.0 mi ENE 16.1 mph 25.3 mph 0.12 in Rain Heavy Rain
12:52 AM 55.0 °F 54.0 °F 96% 29.60 in 4.0 mi NE 19.6 mph 26.5 mph 0.20 in Rain Rain
1:52 AM 54.0 °F 53.1 °F 97% 29.60 in 5.0 mi ENE 19.6 mph 29.9 mph 0.06 in Rain Light Rain
2:52 AM 54.0 °F 53.1 °F 97% 29.59 in 3.0 mi NE 18.4 mph 24.2 mph 0.04 in Rain Rain
3:52 AM 54.0 °F 53.1 °F 97% 29.56 in 3.0 mi NE 17.3 mph 24.2 mph 0.09 in Rain Light Rain
3:59 AM 53.6 °F 53.6 °F 100% 29.55 in 3.0 mi NE 20.7 mph 28.8 mph 0.00 in Rain Light Rain
4:52 AM 53.1 °F 53.1 °F 100% 29.58 in 2.5 mi NE 17.3 mph 25.3 mph 0.05 in Rain Rain
5:06 AM 53.6 °F 53.6 °F 100% 29.57 in 5.0 mi NE 18.4 mph 29.9 mph 0.02 in Rain Light Rain
5:22 AM 53.6 °F 51.8 °F 94% 29.59 in 1.8 mi NE 13.8 mph 26.5 mph 0.06 in Rain Heavy Rain
5:36 AM 53.6 °F 51.8 °F 94% 29.59 in 3.0 mi NE 21.9 mph 33.4 mph 0.12 in Rain Light Rain
5:52 AM 53.1 °F 52.0 °F 96% 29.60 in 4.0 mi NE 18.4 mph 28.8 mph 0.13 in Rain Light Rain
6:04 AM 53.6 °F 51.8 °F 94% 29.59 in 4.0 mi NE 18.4 mph 31.1 mph 0.00 in Rain Light Rain
6:11 AM 53.6 °F 51.8 °F 94% 29.59 in 3.0 mi NE 19.6 mph 31.1 mph 0.01 in Rain Light Rain
6:26 AM 53.6 °F 51.8 °F 94% 29.60 in 3.0 mi NE 17.3 mph 28.8 mph 0.02 in Rain Light Rain
6:40 AM 53.6 °F 51.8 °F 94% 29.59 in 2.5 mi NE 17.3 mph 25.3 mph 0.03 in Rain Rain
6:52 AM 53.1 °F 53.1 °F 100% 29.60 in 2.5 mi NE 17.3 mph 26.5 mph 0.05 in Rain Light Rain
7:18 AM 53.6 °F 53.6 °F 100% 29.59 in 1.8 mi NE 17.3 mph 28.8 mph 0.03 in Rain Rain
7:52 AM 53.1 °F 52.0 °F 96% 29.62 in 1.8 mi NE 12.7 mph 28.8 mph 0.15 in Rain Heavy Rain
8:06 AM 53.6 °F 51.8 °F 94% 29.62 in 2.0 mi NE 13.8 mph 28.8 mph 0.03 in Rain Rain
8:27 AM 53.6 °F 51.8 °F 94% 29.64 in 3.0 mi NE 18.4 mph 34.5 mph 0.05 in Rain Light Rain
8:52 AM 53.1 °F 52.0 °F 96% 29.65 in 5.0 mi NE 12.7 mph 26.5 mph 0.06 in Rain Light Rain
9:08 AM 53.6 °F 51.8 °F 94% 29.64 in 3.0 mi NNE 16.1 mph 31.1 mph 0.00 in Rain Light Rain
9:23 AM 51.8 °F 51.8 °F 100% 29.64 in 3.0 mi NE 15.0 mph 33.4 mph 0.01 in Rain Light Rain
9:27 AM 51.8 °F 51.8 °F 100% 29.64 in 2.5 mi NE 16.1 mph 33.4 mph 0.01 in Rain Light Rain
9:44 AM 51.8 °F 51.8 °F 100% 29.63 in 3.0 mi NE 16.1 mph 26.5 mph 0.02 in Rain Light Rain
9:52 AM 52.0 °F 51.1 °F 97% 29.64 in 6.0 mi NE 19.6 mph 32.2 mph 0.02 in Rain Light Rain
10:04 AM 53.6 °F 50.0 °F 88% 29.63 in 10.0 mi NE 17.3 mph 28.8 mph 0.00 in   Overcast
10:49 AM 55.4 °F 51.8 °F 88% 29.64 in 10.0 mi NE 17.3 mph 25.3 mph 0.00 in   Overcast
10:52 AM 55.0 °F 51.1 °F 86% 29.65 in 10.0 mi NNE 13.8 mph 25.3 mph 0.00 in   Overcast
11:03 AM 55.4 °F 50.0 °F 82% 29.65 in 10.0 mi NNE 15.0 mph 29.9 mph N/A   Overcast
11:11 AM 55.4 °F 48.2 °F 77% 29.65 in 10.0 mi NE 15.0 mph 29.9 mph N/A   Overcast
11:52 AM 55.9 °F 48.9 °F 77% 29.66 in 10.0 mi NNE 12.7 mph 24.2 mph N/A   Overcast
12:52 PM 57.0 °F 50.0 °F 77% 29.67 in 10.0 mi NNE 13.8 mph 24.2 mph N/A   Overcast
1:38 PM 57.2 °F 51.8 °F 82% 29.69 in 10.0 mi North 8.1 mph 19.6 mph N/A   Overcast
1:52 PM 57.0 °F 51.1 °F 81% 29.69 in 10.0 mi NNE 11.5 mph 21.9 mph N/A   Overcast
2:17 PM 57.2 °F 51.8 °F 82% 29.68 in 10.0 mi NNE 8.1 mph 18.4 mph N/A   Overcast
2:49 PM 59.0 °F 50.0 °F 72% 29.69 in 10.0 mi NNE 12.7 mph 18.4 mph N/A   Overcast
2:52 PM 59.0 °F 48.9 °F 69% 29.70 in 10.0 mi NNE 12.7 mph 27.6 mph N/A   Overcast
3:52 PM 59.0 °F 48.0 °F 67% 29.70 in 10.0 mi Variable 6.9 mph - N/A   Overcast
4:52 PM 57.9 °F 48.9 °F 72% 29.72 in 10.0 mi Variable 4.6 mph - N/A   Mostly Cloudy
5:52 PM 59.0 °F 51.1 °F 75% 29.73 in 10.0 mi Calm Calm - N/A   Partly Cloudy
6:52 PM 60.1 °F 52.0 °F 75% 29.72 in 10.0 mi Calm Calm - N/A   Clear
7:52 PM 59.0 °F 53.1 °F 81% 29.74 in 10.0 mi Calm Calm - N/A   Clear
8:52 PM 54.0 °F 52.0 °F 93% 29.75 in 10.0 mi Calm Calm - N/A   Clear
9:52 PM 53.1 °F 51.1 °F 93% 29.76 in 10.0 mi Calm Calm - N/A   Clear
10:52 PM 53.1 °F 52.0 °F 96% 29.75 in 10.0 mi Calm Calm - N/A   Clear
11:52 PM 54.0 °F 53.1 °F 97% 29.75 in 10.0 mi Calm Calm - N/A   Partly Cloudy